Stanley, ID

4:38 AM MDT on May 28, 2018 (GMT -0600)
Stanley

Weather History for KSNT - March, 2013

Change the Weather History Date:

Sunday, March 10, 2013

  Actual Average Record
Temperature  
Mean Temperature 23 °F 26 °F  
Max Temperature 46 °F 40 °F 57 °F (2015)
Min Temperature 0 °F 11 °F -26 °F (1969)
Degree Days  
Heating Degree Days 42 39  
Month to date heating degree days 423 408  
Since 1 July heating degree days 7508 7942  
Cooling Degree Days 0 0  
Month to date cooling degree days 0 0  
Year to date cooling degree days 0 0  
Moisture  
Dew Point 9 °F    
Average Humidity 53    
Maximum Humidity 91    
Minimum Humidity 15    
Precipitation  
Precipitation 0.00 in 0.06 in 1.22 in (1995)
Month to date precipitation 0.46 0.44  
Year to date precipitation 1.70 3.75  
Sea Level Pressure  
Sea Level Pressure 30.37 in    
Wind  
Wind Speed 3 mph (East)    
Max Wind Speed 12 mph    
Max Gust Speed 17 mph    
T = Trace of Precipitation, MM = Missing Value Source: NWS Daily Summary

Daily Weather History Graph

Daily Weather History Graph

Search for Another Location

Airport or City:

Astronomy

Mar. 10, 2013 Rise Set
Actual Time 8:00 AM MDT 7:40 PM MDT
Civil Twilight 7:31 AM MDT 8:08 PM MDT
Nautical Twilight 6:58 AM MDT 8:42 PM MDT
Astronomical Twilight 6:24 AM MDT 9:16 PM MDT
Moon 7:04 AM MDT (3/10) 6:52 PM MDT (3/10)
Length of Visible Light 12h 37m
Length of Day
11h 39m
Waning Crescent, 1% of the Moon is Illuminated
Mar 10
Waning Crescent
Mar 11
New
Mar 19
First Quarter
Mar 27
Full
Apr 2
Last Quarter

Hourly Weather History & Observations

Time (MDT) Temp. Windchill Dew Point Humidity Pressure Visibility Wind Dir Wind Speed Gust Speed Precip Events Conditions
12:51 AM 9.0 °F 2.4 °F 5.0 °F 84% 30.39 in - SSE 3.5 mph - N/A   Unknown
1:51 AM 9.0 °F - 5.0 °F 84% 30.40 in - Calm Calm - N/A   Unknown
3:51 AM 10.9 °F 1.4 °F 5.0 °F 77% 30.38 in - SE 5.8 mph - N/A   Unknown
4:51 AM 8.1 °F 1.4 °F 3.9 °F 83% 30.41 in - South 3.5 mph - N/A   Unknown
5:51 AM 3.9 °F - 1.0 °F 88% 30.44 in - Calm Calm - N/A   Unknown
6:51 AM 3.0 °F - 1.0 °F 91% 30.45 in - Calm Calm - N/A   Unknown
7:51 AM 3.0 °F -6.4 °F -0.0 °F 87% 30.50 in - South 4.6 mph - N/A   Unknown
8:51 AM 3.0 °F - -0.9 °F 84% 30.53 in - Calm Calm - N/A   Unknown
9:51 AM 9.0 °F 0.6 °F 3.0 °F 77% 30.51 in - East 4.6 mph - N/A   Unknown
10:51 AM 12.0 °F - 6.1 °F 77% 30.52 in - Calm Calm - N/A   Unknown
11:51 AM 19.9 °F - 9.0 °F 62% 30.46 in - Calm Calm - N/A   Unknown
12:51 PM 27.0 °F - 10.9 °F 51% 30.40 in - Calm Calm - N/A   Unknown
1:51 PM 34.0 °F - 10.9 °F 38% 30.35 in - Calm Calm - N/A   Unknown
2:51 PM 36.0 °F - 10.9 °F 36% 30.32 in - Calm Calm - N/A   Unknown
3:51 PM 41.0 °F - 7.0 °F 25% 30.27 in - Calm Calm - N/A   Unknown
4:51 PM 46.0 °F 44.8 °F 1.0 °F 16% 30.24 in - North 3.5 mph - N/A   Unknown
5:51 PM 45.0 °F 43.5 °F 5.0 °F 19% 30.25 in - Variable 3.5 mph - N/A   Unknown
6:51 PM 41.0 °F 39.0 °F 9.0 °F 27% 30.28 in - NNW 3.5 mph - N/A   Unknown
7:51 PM 37.9 °F 34.4 °F 14.0 °F 38% 30.31 in - NNW 4.6 mph - N/A   Unknown
8:51 PM 37.0 °F - 18.0 °F 46% 30.34 in - Calm Calm - N/A   Unknown
9:51 PM 36.0 °F 32.1 °F 21.0 °F 55% 30.30 in - North 4.6 mph - N/A   Unknown
10:51 PM 35.1 °F 30.1 °F 19.9 °F 54% 30.28 in - WSW 5.8 mph - N/A   Unknown
11:51 PM 35.1 °F 29.3 °F 19.9 °F 54% 30.25 in - North 6.9 mph 17.3 mph N/A   Unknown
12:51 AM 34.0 °F 28.8 °F 19.9 °F 56% 30.21 in - SSE 5.8 mph - N/A   Unknown